FW7124 Weather Reports


time (UTC)temp
C
wind
direction
speed
KPH
gust
KPH
rain 1hr
cm
rain 24hr
cm
rain mn
cm
humidity
%
barometer
mb
20260510162004 12 5 1.6 6.4 0.00 0.00 0.00 66 1015.5
20260510161440 12 16 3.2 8.0 0.00 0.00 0.00 66 1015.5
20260510160004 12 5 1.6 4.8 0.00 0.00 0.00 67 1015.8
20260510155434 12 10 3.2 6.4 0.00 0.00 0.00 67 1015.8
20260510154000 12 9 1.6 8.0 0.00 0.00 0.00 68 1015.9
20260510153000 11 11 1.6 6.4 0.00 0.00 0.00 68 1015.9
20260510151000 11 10 3.2 4.8 0.00 0.00 0.00 69 1016.1
20260510150000 11 346 1.6 4.8 0.00 0.00 0.00 69 1016.3
20260510144000 11 349 1.6 9.7 0.00 0.00 0.00 70 1016.4
20260510143441 12 351 1.6 9.7 0.00 0.00 0.00 70 1016.5
20260510142000 12 351 1.6 6.4 0.00 0.00 0.00 70 1016.6
20260510141000 12 14 3.2 8.0 0.00 0.00 0.00 69 1016.7
20260510140005 12 42 1.6 4.8 0.00 0.00 0.00 70 1016.6
20260510135442 12 23 1.6 6.4 0.00 0.00 0.00 71 1016.6
20260510134439 12 346 1.6 8.0 0.00 0.00 0.00 72 1016.8
20260510133000 12 11 1.6 4.8 0.00 0.00 0.00 71 1017.0
20260510132454 12 5 1.6 8.0 0.00 0.00 0.00 71 1016.9
20260510130958 12 340 3.2 9.7 0.00 0.00 0.00 71 1017.0
20260510125957 12 24 3.2 9.7 0.00 0.00 0.00 72 1017.1
20260510124956 12 21 3.2 8.0 0.00 0.00 0.00 71 1017.1
20260510123956 12 13 3.2 4.8 0.00 0.00 0.00 70 1017.1
20260510122953 12 33 3.2 8.0 0.00 0.00 0.00 70 1017.3
20260510122439 12 0 3.2 8.0 0.00 0.00 0.00 70 1017.3
20260510121436 12 0 3.2 8.0 0.00 0.00 0.00 70 1017.3
20260510120422 13 22 3.2 8.0 0.00 0.00 0.00 68 1017.2
20260510114943 13 68 3.2 8.0 0.00 0.00 0.00 68 1017.3
20260510114425 13 336 3.2 6.4 0.00 0.00 0.00 68 1017.4
20260510112942 13 20 3.2 8.0 0.00 0.00 0.00 67 1017.4
20260510111941 13 26 3.2 8.0 0.00 0.00 0.00 67 1017.6
20260510110940 13 23 3.2 8.0 0.00 0.00 0.00 68 1017.6
20260510105939 13 34 3.2 8.0 0.00 0.00 0.00 69 1017.7
20260510104939 13 24 3.2 8.0 0.00 0.00 0.00 70 1017.8
20260510103938 13 9 3.2 9.7 0.00 0.00 0.00 68 1017.8
20260510102937 12 23 3.2 9.7 0.00 0.00 0.00 67 1017.8
20260510101937 12 12 3.2 8.0 0.00 0.00 0.00 67 1017.9
20260510100938 12 11 3.2 9.7 0.00 0.00 0.00 70 1017.9
20260510095936 12 11 3.2 9.7 0.00 0.00 0.00 70 1017.9
20260510094935 12 5 3.2 8.0 0.00 0.00 0.00 71 1017.8
20260510093936 12 19 3.2 8.0 0.00 0.00 0.00 71 1017.8
20260510092936 12 5 1.6 8.0 0.00 0.00 0.00 71 1017.9
20260510091937 12 25 3.2 8.0 0.00 0.00 0.00 71 1018.1
20260510090935 11 15 3.2 8.0 0.00 0.00 0.00 73 1018.1
20260510085934 11 88 3.2 6.4 0.00 0.00 0.00 73 1018.1
20260510084934 11 355 3.2 8.0 0.00 0.00 0.00 75 1018.1
20260510083932 11 22 1.6 6.4 0.00 0.00 0.00 77 1018.2
20260510082935 10 14 1.6 8.0 0.00 0.00 0.00 78 1018.3
20260510081936 10 5 3.2 8.0 0.00 0.00 0.00 78 1018.3
20260510075927 10 17 1.6 6.4 0.00 0.00 0.00 80 1018.4
20260510074927 10 13 3.2 8.0 0.00 0.00 0.00 80 1018.2
20260510073927 10 5 3.2 8.0 0.00 0.00 0.00 80 1018.3
20260510072927 10 13 3.2 8.0 0.00 0.00 0.00 81 1018.4
20260510071927 9 9 3.2 8.0 0.00 0.00 0.00 81 1018.4
20260510070926 9 0 3.2 8.0 0.00 0.00 0.00 82 1018.2
20260510065927 9 19 3.2 8.0 0.00 0.00 0.00 82 1018.2
20260510065412 9 15 1.6 8.0 0.00 0.00 0.00 82 1018.3
20260510063928 9 344 3.2 8.0 0.00 0.00 0.00 82 1018.3
20260510062927 9 318 1.6 4.8 0.00 0.00 0.00 83 1018.2
20260510061927 9 26 1.6 4.8 0.00 0.00 0.00 84 1018.2
20260510060928 9 9 1.6 6.4 0.00 0.00 0.00 84 1018.2
20260510055927 9 347 1.6 8.0 0.00 0.00 0.00 84 1018.1
20260510054927 9 13 1.6 8.0 0.00 0.00 0.00 84 1018.1
20260510053926 9 15 0.0 3.2 0.00 0.00 0.00 84 1018.2
20260510053400 9 0 1.6 3.2 0.00 0.00 0.00 84 1018.2
20260510051925 9 43 1.6 4.8 0.00 0.00 0.00 84 1018.2
20260510050925 9 5 1.6 4.8 0.00 0.00 0.00 83 1018.2
20260510045925 9 349 1.6 4.8 0.00 0.00 0.00 83 1018.2
20260510044925 9 0 1.6 3.2 0.00 0.00 0.00 83 1018.2
20260510043925 9 5 1.6 3.2 0.00 0.00 0.00 83 1018.2
20260510042925 9 0 0.0 3.2 0.00 0.00 0.00 83 1018.1
20260510040926 9 340 1.6 9.7 0.00 0.00 0.00 83 1018.1
20260510035401 9 333 1.6 8.0 0.00 0.00 0.00 82 1018.3
20260510033920 9 11 0.0 3.2 0.00 0.00 0.00 82 1018.4
20260510031920 9 329 0.0 3.2 0.00 0.00 0.00 82 1018.5
20260510030914 9 325 1.6 3.2 0.00 0.00 0.00 82 1018.6
20260510025913 10 5 1.6 3.2 0.00 0.00 0.00 82 1018.5
20260510024910 10 11 1.6 4.8 0.00 0.00 0.00 82 1018.6
20260510023909 10 344 1.6 4.8 0.00 0.00 0.00 82 1018.6
20260510022906 10 26 0.0 4.8 0.00 0.00 0.00 82 1018.6
20260510022343 10 336 0.0 4.8 0.00 0.00 0.00 81 1018.5
20260510020903 10 338 0.0 3.2 0.00 0.00 0.00 80 1018.6
20260510015901 10 344 1.6 6.4 0.00 0.00 0.00 80 1018.5
20260510014900 10 19 1.6 8.0 0.00 0.00 0.00 79 1018.5
20260510013903 10 5 1.6 4.8 0.00 0.00 0.00 78 1018.6
20260510012858 10 355 1.6 4.8 0.00 0.00 0.00 76 1018.5
20260510011904 10 337 1.6 4.8 0.00 0.00 0.00 73 1018.6
20260510010902 10 5 1.6 4.8 0.00 0.00 0.00 71 1018.8
20260510005900 11 355 1.6 4.8 0.00 0.00 0.00 67 1018.7
20260510004858 11 344 1.6 4.8 0.00 0.00 0.00 65 1018.5
20260510003857 11 25 1.6 9.7 0.00 0.00 0.00 63 1018.6
20260510002856 11 13 1.6 9.7 0.00 0.00 0.00 63 1018.5
20260510001858 11 350 0.0 3.2 0.00 0.00 0.00 64 1018.6
20260509235852 11 349 0.0 3.2 0.00 0.00 0.00 62 1018.5
20260509234851 11 349 0.0 3.2 0.00 0.00 0.00 62 1018.5
20260509233850 12 348 0.0 3.2 0.00 0.00 0.00 62 1018.5
20260509232851 12 355 0.0 0.0 0.00 0.00 0.00 62 1018.4
20260509231853 12 355 0.0 0.0 0.00 0.00 0.00 62 1018.4
20260509230850 12 355 0.0 0.0 0.00 0.00 0.00 61 1018.4
20260509225850 12 355 0.0 0.0 0.00 0.00 0.00 61 1018.3
20260509224850 12 355 0.0 0.0 0.00 0.00 0.00 61 1018.3
20260509223847 12 355 0.0 0.0 0.00 0.00 0.00 62 1018.4
20260509222843 12 355 0.0 0.0 0.00 0.00 0.00 60 1018.3
20260509221846 12 355 0.0 0.0 0.00 0.00 0.00 58 1018.2
20260509221331 12 355 0.0 0.0 0.00 0.00 0.00 60 1018.1
20260509215847 12 355 0.0 0.0 0.00 0.00 0.00 61 1018.2
20260509214841 13 355 0.0 0.0 0.00 0.00 0.00 57 1018.1
20260509213837 13 355 0.0 0.0 0.00 0.00 0.00 58 1018.2
20260509212837 13 355 0.0 0.0 0.00 0.00 0.00 57 1018.4
20260509211837 13 355 0.0 0.0 0.00 0.00 0.00 57 1018.2
20260509210838 13 336 0.0 4.8 0.00 0.00 0.00 56 1018.1
20260509210324 13 349 1.6 4.8 0.00 0.00 0.00 54 1017.8
20260509205316 14 42 0.0 1.6 0.00 0.00 0.00 56 1017.8
20260509204312 14 42 0.0 1.6 0.00 0.00 0.00 57 1017.7
20260509202832 15 65 0.0 3.2 0.00 0.00 0.00 56 1017.6
20260509201832 15 57 0.0 3.2 0.00 0.00 0.00 56 1017.6
20260509200831 15 104 0.0 4.8 0.00 0.00 0.00 55 1017.4
20260509200309 15 85 0.0 4.8 0.00 0.00 0.00 55 1017.4
20260509194830 16 317 0.0 6.4 0.00 0.00 0.00 51 1017.5
20260509194311 16 335 0.0 8.0 0.00 0.00 0.00 51 1017.2
20260509192830 16 88 1.6 9.7 0.00 0.00 0.00 51 1017.2
20260509191833 16 288 0.0 6.4 0.00 0.00 0.00 48 1017.2
20260509190830 17 89 1.6 8.0 0.00 0.00 0.00 49 1017.1
20260509185830 17 90 1.6 6.4 0.00 0.00 0.00 49 1017.0
20260509184827 17 53 1.6 8.0 0.00 0.00 0.00 48 1016.9
20260509183826 18 159 0.0 9.7 0.00 0.00 0.00 45 1017.0
20260509182826 18 136 1.6 9.7 0.00 0.00 0.00 47 1016.7
20260509181824 18 104 1.6 8.0 0.00 0.00 0.00 44 1016.5
20260509181300 18 310 0.0 4.8 0.00 0.00 0.00 46 1016.6
20260509175824 18 355 1.6 16.1 0.00 0.00 0.00 44 1016.6
20260509174824 19 161 3.2 16.1 0.00 0.00 0.00 43 1016.5
20260509173824 19 160 1.6 9.7 0.00 0.00 0.00 44 1016.4
20260509173307 19 173 0.0 8.0 0.00 0.00 0.00 44 1016.3
20260509171825 18 320 0.0 3.2 0.00 0.00 0.00 46 1016.3
20260509170825 18 340 1.6 3.2 0.00 0.00 0.00 44 1016.3
20260509165822 19 317 1.6 4.8 0.00 0.00 0.00 44 1016.5
20260509164822 19 301 1.6 4.8 0.00 0.00 0.00 43 1016.4
20260509163822 19 31 0.0 6.4 0.00 0.00 0.00 44 1016.5
20260509162822 19 293 1.6 12.9 0.00 0.00 0.00 43 1016.4